Eastsound, WA
on Sunday, December 9, 2012

Sunday
Previous Day Next Day
Daily Summary
 ActualAverage (KBLI)Record (KBLI)
Temperature
Mean Temperature °F / °C 38°F / 3°C  
Max Temperature 39°F / 4°C 45°F / 7°C 58°F / 14°C (1950)
Min Temperature 35°F / 2°C 32°F / 0°C 11°F / -11°C (1972)
Degree Days
Heating Degree Days 28 27  
Month to date heating degree days 233  
Cooling Degree Days 0 0  
Month to date cooling degree days 0  
Year to date cooling degree days 42  
Moisture
Dew Point 36°F / 2°C   
Average Humidity 94    
Maximum Humidity 100    
Minimum Humidity 75    
Precipitation
Precipitation 0.00 in / 0.00 cm 0.14 in / 3.56 cm 1.13 in / 2.87 cm (1956)
Month to date precipitation 1.42  
Year to date precipitation 33.03  
Wind
Wind Speed 2 mph / 3 km/h   
Max Wind Speed 8 mph / 13 km/h   
Max Gust Speed 17 mph / 27 km/h   
Visibility 6 miles / 10 kilometers   
Events Rain   

Key: T is trace of precipitation, MM is missing value
Source: NWS Daily Summary
Time(PST)TemperatureDew PointHumidity Pressure Visibility Wind DirectionWind SpeedGust SpeedPrecipitationEvents Conditions
12:15 AM 37.4°F / 3.0°C 35.6°F / 2.0°C 93% 30.33 in / 1027.0 hPa 10.0 miles / 16.1 kilometers Calm Calm - N/A   Scattered Clouds
12:35 AM 37.4°F / 3.0°C 35.6°F / 2.0°C 93% 30.33 in / 1027.0 hPa 10.0 miles / 16.1 kilometers Calm Calm - N/A   Clear
12:55 AM 35.6°F / 2.0°C 35.6°F / 2.0°C 100% 30.33 in / 1027.0 hPa 10.0 miles / 16.1 kilometers Calm Calm - N/A   Mostly Cloudy
1:15 AM 37.4°F / 3.0°C 35.6°F / 2.0°C 93% 30.33 in / 1027.0 hPa 10.0 miles / 16.1 kilometers Calm Calm - N/A   Mostly Cloudy
1:35 AM 35.6°F / 2.0°C 35.6°F / 2.0°C 100% 30.34 in / 1027.3 hPa 10.0 miles / 16.1 kilometers Calm Calm - N/A   Overcast
1:55 AM 37.4°F / 3.0°C 35.6°F / 2.0°C 93% 30.34 in / 1027.3 hPa 10.0 miles / 16.1 kilometers Calm Calm - N/A   Mostly Cloudy
2:15 AM 37.4°F / 3.0°C 35.6°F / 2.0°C 93% 30.34 in / 1027.3 hPa 10.0 miles / 16.1 kilometers Calm Calm - N/A   Mostly Cloudy
2:35 AM 35.6°F / 2.0°C 35.6°F / 2.0°C 100% 30.35 in / 1027.7 hPa 10.0 miles / 16.1 kilometers Calm Calm - N/A   Scattered Clouds
2:55 AM 37.4°F / 3.0°C 35.6°F / 2.0°C 93% 30.36 in / 1028.0 hPa 10.0 miles / 16.1 kilometers Calm Calm - N/A   Mostly Cloudy
3:15 AM 37.4°F / 3.0°C 35.6°F / 2.0°C 93% 30.35 in / 1027.7 hPa 10.0 miles / 16.1 kilometers Calm Calm - N/A   Overcast
3:35 AM 37.4°F / 3.0°C 35.6°F / 2.0°C 93% 30.34 in / 1027.3 hPa 10.0 miles / 16.1 kilometers Calm Calm - N/A   Scattered Clouds
3:55 AM 37.4°F / 3.0°C 35.6°F / 2.0°C 93% 30.33 in / 1027.0 hPa 10.0 miles / 16.1 kilometers Calm Calm - N/A   Partly Cloudy
4:35 AM 37.4°F / 3.0°C 35.6°F / 2.0°C 93% 30.33 in / 1027.0 hPa 10.0 miles / 16.1 kilometers Calm Calm - N/A   Mostly Cloudy
4:55 AM 37.4°F / 3.0°C 35.6°F / 2.0°C 93% 30.34 in / 1027.3 hPa 10.0 miles / 16.1 kilometers Calm Calm - N/A   Mostly Cloudy
5:15 AM 37.4°F / 3.0°C 35.6°F / 2.0°C 93% 30.34 in / 1027.3 hPa 10.0 miles / 16.1 kilometers Calm Calm - N/A   Scattered Clouds
5:35 AM 37.4°F / 3.0°C 35.6°F / 2.0°C 93% 30.34 in / 1027.3 hPa 10.0 miles / 16.1 kilometers ESE 4.6 mph / 7.4 km/h - N/A   Partly Cloudy
5:55 AM 39.2°F / 4.0°C 33.8°F / 1.0°C 81% 30.33 in / 1027.0 hPa 8.0 miles / 12.9 kilometers ENE 6.9 mph / 11.1 km/h - N/A   Clear
6:15 AM 39.2°F / 4.0°C 32.0°F / 0.0°C 75% 30.33 in / 1027.0 hPa 10.0 miles / 16.1 kilometers Calm Calm - N/A   Clear
6:35 AM 39.2°F / 4.0°C 32.0°F / 0.0°C 75% 30.33 in / 1027.0 hPa 10.0 miles / 16.1 kilometers East 3.5 mph / 5.6 km/h - N/A   Clear
6:55 AM 39.2°F / 4.0°C 32.0°F / 0.0°C 75% 30.33 in / 1027.0 hPa 10.0 miles / 16.1 kilometers ESE 4.6 mph / 7.4 km/h - N/A   Clear
7:15 AM 39.2°F / 4.0°C 32.0°F / 0.0°C 75% 30.33 in / 1027.0 hPa 8.0 miles / 12.9 kilometers East 5.8 mph / 9.3 km/h - N/A   Clear
7:35 AM 39.2°F / 4.0°C 32.0°F / 0.0°C 75% 30.33 in / 1027.0 hPa 9.0 miles / 14.5 kilometers ESE 4.6 mph / 7.4 km/h - N/A   Scattered Clouds
7:55 AM 39.2°F / 4.0°C 32.0°F / 0.0°C 75% 30.32 in / 1026.6 hPa 8.0 miles / 12.9 kilometers East 3.5 mph / 5.6 km/h - N/A   Overcast
8:15 AM 39.2°F / 4.0°C 33.8°F / 1.0°C 81% 30.33 in / 1027.0 hPa 10.0 miles / 16.1 kilometers Calm Calm - N/A   Overcast
8:35 AM 39.2°F / 4.0°C 33.8°F / 1.0°C 81% 30.33 in / 1027.0 hPa 7.0 miles / 11.3 kilometers NE 5.8 mph / 9.3 km/h - N/A Rain Light Rain
8:55 AM 39.2°F / 4.0°C 35.6°F / 2.0°C 87% 30.33 in / 1027.0 hPa 8.0 miles / 12.9 kilometers ENE 3.5 mph / 5.6 km/h - N/A Rain Light Rain
9:15 AM 39.2°F / 4.0°C 35.6°F / 2.0°C 87% 30.33 in / 1027.0 hPa 5.0 miles / 8.0 kilometers East 6.9 mph / 11.1 km/h - N/A Rain Light Rain
9:35 AM 39.2°F / 4.0°C 33.8°F / 1.0°C 81% 30.32 in / 1026.6 hPa 2.0 miles / 3.2 kilometers East 5.8 mph / 9.3 km/h 17.3 mph / 27.8 km/h N/A   Haze
9:55 AM 39.2°F / 4.0°C 33.8°F / 1.0°C 81% 30.32 in / 1026.6 hPa 8.0 miles / 12.9 kilometers ESE 5.8 mph / 9.3 km/h - N/A   Overcast
10:15 AM 37.4°F / 3.0°C 35.6°F / 2.0°C 93% 30.32 in / 1026.6 hPa 3.0 miles / 4.8 kilometers East 6.9 mph / 11.1 km/h - N/A Rain Light Rain
10:35 AM 37.4°F / 3.0°C 35.6°F / 2.0°C 93% 30.33 in / 1027.0 hPa 4.0 miles / 6.4 kilometers ESE 6.9 mph / 11.1 km/h 16.1 mph / 25.9 km/h N/A Rain Light Rain
10:55 AM 37.4°F / 3.0°C 35.6°F / 2.0°C 93% 30.32 in / 1026.6 hPa 2.5 miles / 4.0 kilometers East 6.9 mph / 11.1 km/h - N/A Rain Light Rain
11:15 AM 37.4°F / 3.0°C 35.6°F / 2.0°C 93% 30.32 in / 1026.6 hPa 2.0 miles / 3.2 kilometers ESE 5.8 mph / 9.3 km/h - N/A Rain Light Rain
11:35 AM 37.4°F / 3.0°C 35.6°F / 2.0°C 93% 30.32 in / 1026.6 hPa 2.5 miles / 4.0 kilometers ENE 8.1 mph / 13.0 km/h - N/A Rain Light Rain
11:55 AM 37.4°F / 3.0°C 35.6°F / 2.0°C 93% 30.31 in / 1026.3 hPa 2.5 miles / 4.0 kilometers ENE 6.9 mph / 11.1 km/h - N/A Rain Light Rain
12:15 PM 37.4°F / 3.0°C 35.6°F / 2.0°C 93% 30.31 in / 1026.3 hPa 2.5 miles / 4.0 kilometers East 6.9 mph / 11.1 km/h - N/A Rain Light Rain
12:35 PM 37.4°F / 3.0°C 35.6°F / 2.0°C 93% 30.31 in / 1026.3 hPa 1.8 miles / 2.8 kilometers East 4.6 mph / 7.4 km/h - N/A Rain Light Rain
12:55 PM 37.4°F / 3.0°C 37.4°F / 3.0°C 100% 30.31 in / 1026.3 hPa 2.0 miles / 3.2 kilometers NE 5.8 mph / 9.3 km/h - N/A Rain Light Rain
1:15 PM 37.4°F / 3.0°C 37.4°F / 3.0°C 100% 30.30 in / 1026.0 hPa 1.5 miles / 2.4 kilometers ENE 4.6 mph / 7.4 km/h - N/A   Overcast
1:35 PM 37.4°F / 3.0°C 37.4°F / 3.0°C 100% 30.30 in / 1026.0 hPa 2.5 miles / 4.0 kilometers ENE 5.8 mph / 9.3 km/h - N/A Rain Light Rain
1:55 PM 37.4°F / 3.0°C 37.4°F / 3.0°C 100% 30.29 in / 1025.6 hPa 1.8 miles / 2.8 kilometers ENE 3.5 mph / 5.6 km/h - N/A Rain Light Rain
2:15 PM 37.4°F / 3.0°C 37.4°F / 3.0°C 100% 30.30 in / 1026.0 hPa 1.8 miles / 2.8 kilometers ENE 4.6 mph / 7.4 km/h - N/A   Overcast
2:35 PM 37.4°F / 3.0°C 37.4°F / 3.0°C 100% 30.30 in / 1026.0 hPa 1.2 miles / 2.0 kilometers ENE 3.5 mph / 5.6 km/h - N/A Rain Light Rain
2:55 PM 37.4°F / 3.0°C 37.4°F / 3.0°C 100% 30.30 in / 1026.0 hPa 2.0 miles / 3.2 kilometers NE 6.9 mph / 11.1 km/h - N/A Rain Light Rain
3:15 PM 37.4°F / 3.0°C 37.4°F / 3.0°C 100% 30.30 in / 1026.0 hPa 2.0 miles / 3.2 kilometers Calm Calm - N/A Rain Light Rain
3:35 PM 37.4°F / 3.0°C 37.4°F / 3.0°C 100% 30.31 in / 1026.3 hPa 1.8 miles / 2.8 kilometers NE 3.5 mph / 5.6 km/h - N/A Rain Light Rain
3:55 PM 37.4°F / 3.0°C 37.4°F / 3.0°C 100% 30.31 in / 1026.3 hPa 2.0 miles / 3.2 kilometers NE 4.6 mph / 7.4 km/h - N/A Rain Light Rain
4:15 PM 37.4°F / 3.0°C 37.4°F / 3.0°C 100% 30.30 in / 1026.0 hPa 3.0 miles / 4.8 kilometers NE 5.8 mph / 9.3 km/h - N/A   Overcast
4:35 PM 37.4°F / 3.0°C 37.4°F / 3.0°C 100% 30.31 in / 1026.3 hPa 5.0 miles / 8.0 kilometers Calm Calm - N/A   Overcast
4:55 PM 37.4°F / 3.0°C 37.4°F / 3.0°C 100% 30.31 in / 1026.3 hPa 5.0 miles / 8.0 kilometers Calm Calm - N/A   Overcast
5:15 PM 37.4°F / 3.0°C 37.4°F / 3.0°C 100% 30.31 in / 1026.3 hPa 5.0 miles / 8.0 kilometers Calm Calm - N/A   Overcast
5:35 PM 37.4°F / 3.0°C 37.4°F / 3.0°C 100% 30.31 in / 1026.3 hPa 5.0 miles / 8.0 kilometers Calm Calm - N/A   Overcast
5:55 PM 37.4°F / 3.0°C 37.4°F / 3.0°C 100% 30.31 in / 1026.3 hPa 3.0 miles / 4.8 kilometers Calm Calm - N/A   Overcast
6:15 PM 39.2°F / 4.0°C 37.4°F / 3.0°C 93% 30.30 in / 1026.0 hPa 2.5 miles / 4.0 kilometers Calm Calm - N/A   Mostly Cloudy
6:35 PM 37.4°F / 3.0°C 37.4°F / 3.0°C 100% 30.31 in / 1026.3 hPa 2.5 miles / 4.0 kilometers Calm Calm - N/A   Overcast
6:55 PM 37.4°F / 3.0°C 37.4°F / 3.0°C 100% 30.31 in / 1026.3 hPa 3.0 miles / 4.8 kilometers Calm Calm - N/A   Overcast
7:15 PM 39.2°F / 4.0°C 37.4°F / 3.0°C 93% 30.32 in / 1026.6 hPa 4.0 miles / 6.4 kilometers Calm Calm - N/A   Overcast
7:35 PM 39.2°F / 4.0°C 39.2°F / 4.0°C 100% 30.32 in / 1026.6 hPa 6.0 miles / 9.7 kilometers Calm Calm - N/A   Overcast
7:55 PM 39.2°F / 4.0°C 39.2°F / 4.0°C 100% 30.32 in / 1026.6 hPa 9.0 miles / 14.5 kilometers Calm Calm - N/A   Overcast
8:15 PM 39.2°F / 4.0°C 39.2°F / 4.0°C 100% 30.33 in / 1027.0 hPa 6.0 miles / 9.7 kilometers Calm Calm - N/A   Overcast
8:35 PM 39.2°F / 4.0°C 39.2°F / 4.0°C 100% 30.34 in / 1027.3 hPa 10.0 miles / 16.1 kilometers Calm Calm - N/A   Overcast
9:15 PM 39.2°F / 4.0°C 39.2°F / 4.0°C 100% 30.34 in / 1027.3 hPa 10.0 miles / 16.1 kilometers Calm Calm - N/A   Overcast
9:35 PM 39.2°F / 4.0°C 39.2°F / 4.0°C 100% 30.33 in / 1027.0 hPa 10.0 miles / 16.1 kilometers Calm Calm - N/A   Overcast
9:55 PM 39.2°F / 4.0°C 39.2°F / 4.0°C 100% 30.33 in / 1027.0 hPa 10.0 miles / 16.1 kilometers Calm Calm - N/A   Overcast
10:15 PM 39.2°F / 4.0°C 39.2°F / 4.0°C 100% 30.33 in / 1027.0 hPa 10.0 miles / 16.1 kilometers Calm Calm - N/A   Overcast
10:35 PM 39.2°F / 4.0°C 39.2°F / 4.0°C 100% 30.34 in / 1027.3 hPa 10.0 miles / 16.1 kilometers Calm Calm - N/A   Overcast
10:55 PM 39.2°F / 4.0°C 37.4°F / 3.0°C 93% 30.34 in / 1027.3 hPa 10.0 miles / 16.1 kilometers North 3.5 mph / 5.6 km/h - N/A   Overcast
11:15 PM 39.2°F / 4.0°C 37.4°F / 3.0°C 93% 30.35 in / 1027.7 hPa 10.0 miles / 16.1 kilometers Calm Calm - N/A   Overcast
11:55 PM 39.2°F / 4.0°C 39.2°F / 4.0°C 100% 30.36 in / 1028.0 hPa 10.0 miles / 16.1 kilometers Calm Calm - N/A   Overcast
Moon Phase
Dec. 09 Dec. 13 Dec. 20 Dec. 28 Jan. 04
Sunrise:07:53 AM (PST) Moon Rise:03:17 AM (PST)12/9
Sunset:04:15 PM (PST) Moon Set:01:39 PM (PST)12/9

Copyright © 2014 The Weather Underground, Inc.